Location: Bonneville
(48.5568°N, 2.2829°E)
Time: 20:10:17
(UTC+00:00)

Daily predictions for brighter satellites

Satellite Brightness Start Highest point End
(mag) Time Altitude Azimuth Time Altitude Azimuth Time Altitude Azimuth
IRS-1A Rocket 4.4 19:46:04 10° SSE 19:51:50 86° ENE 19:57:45 10° NNW
Cosmos 1833 Rocket 4.2 19:47:23 10° N 19:52:00 25° NE 19:56:35 10° E
Intercosmos 24 4.3 19:51:07 10° SSE 19:54:34 35° E 19:57:51 10° NNE
Cosmos 1242 Rocket 3.6 19:54:15 10° SSE 19:57:17 26° E 20:00:19 10° NE
Cosmos 1805 Rocket 3.5 19:54:44 10° N 19:59:05 71° ENE 20:03:26 10° SSE
Cosmos 1633 Rocket 3.9 20:02:41 10° N 20:06:43 34° ENE 20:10:42 10° SE
Cosmos 1386 Rocket 4.4 20:00:52 10° N 20:06:55 75° E 20:13:00 10° SSE
ARIANE 5 R/B 3.9 20:06:19 10° ESE 20:09:54 26° ENE 20:13:29 10° N
Terra 3.8 20:07:37 10° E 20:10:29 16° ENE 20:13:21 10° NNE
USA 290 2.2 20:08:29 10° NNW 20:11:45 74° ENE 20:14:51 11° SSE
Intercosmos 25 Rocket 4.4 20:07:11 10° NNW 20:14:03 73° W 20:18:14 10° S
ERS-1 Rocket 4.3 20:10:49 10° ESE 20:14:50 25° ENE 20:18:52 10° N
IGS 5A 3.5 20:11:36 10° SSE 20:15:42 66° ENE 20:19:50 10° N
Cosmos 1745 Rocket 4.0 20:10:14 10° N 20:16:30 89° ENE 20:22:39 10° S
Resurs 1-3 4.1 20:13:36 10° S 20:17:56 62° WSW 20:22:19 10° NNW
Cosmos 1437 4.3 20:17:58 13° ESE 20:19:00 16° E 20:20:48 10° NE
Cosmos 1709 Rocket 4.1 20:13:08 10° N 20:19:10 57° ENE 20:25:10 10° SSE
Cosmos 1933 3.4 20:15:41 10° S 20:19:40 61° E 20:23:39 10° NNE
Cosmos 1503 Rocket 4.1 20:15:29 10° S 20:20:30 54° ESE 20:25:35 10° NNE
X-37B 1.2 20:18:56 10° W 20:21:58 40° S 20:24:16 15° ESE
Cosmos 1437 Rocket 3.1 20:18:36 10° SSW 20:22:26 69° WNW 20:26:25 10° N
USA 305 3.8 20:20:34 10° WNW 20:24:40 45° NNE 20:28:47 10° E
Cosmos 2082 Rocket 3.7 20:22:52 10° N 20:27:26 24° NE 20:31:58 10° E
Cosmos 1500 4.2 20:24:20 10° N 20:27:43 31° ENE 20:30:08 16° SE
COSMOS 2406 4.0 20:22:41 10° NNW 20:28:01 40° NE 20:32:38 13° ESE
Meteor 1-20 Rocket 4.3 20:25:24 10° NNW 20:31:04 83° W 20:36:35 10° S
Ariane Rocket 4.0 20:27:40 10° S 20:32:30 45° W 20:37:23 10° NNW
Cosmos 1666 Rocket 3.5 20:28:57 10° N 20:33:23 74° E 20:37:21 12° SSE
Meteor 2-17 Rocket 4.5 20:29:32 10° N 20:35:45 80° E 20:41:51 10° SSE
S3M 4.2 20:31:29 10° SSW 20:37:51 79° W 20:44:15 10° N
Cosmos 2315 Rocket 4.1 20:33:04 10° S 20:39:18 62° E 20:45:36 10° NNE
Cosmos 1782 2.9 20:36:21 10° S 20:40:16 57° E 20:44:12 10° NNE
Landsat 7 3.9 20:35:43 10° SSE 20:40:29 81° WSW 20:45:17 10° NNW
USA 245 2.2 20:42:52 29° SE 20:43:43 50° ENE 20:45:54 10° N
USA 306 3.6 20:39:47 10° WNW 20:43:56 50° NNE 20:47:58 11° E
Cosmos 1271 Rocket 4.4 20:46:43 16° ESE 20:47:43 18° E 20:50:26 10° NE
SPOT 1/Viking Rocket 3.5 20:45:30 14° SSE 20:50:01 86° ENE 20:55:15 10° NNW
Cosmos 1602 3.9 20:47:01 10° NNW 20:50:52 74° W 20:54:03 15° S
Cosmos 1354 Rocket 4.0 20:47:09 10° SSW 20:52:23 85° ESE 20:57:41 10° NNE
Sich 1 4.1 20:48:43 10° NNW 20:52:49 42° W 20:56:55 10° SSW
SJ 16-02 2.7 20:52:10 20° ESE 20:53:23 22° E 20:56:48 10° NE
Cosmos 2278 Rocket 2.9 20:50:06 15° SSE 20:54:03 33° ESE 20:59:04 10° NE
NOSS 3-4 (A) 4.3 20:50:40 10° NW 20:57:16 52° NE 21:03:33 15° ESE
NOSS 3-4 (C) 4.4 20:50:46 10° NW 20:57:23 51° NE 21:03:39 15° ESE
Resurs 01 Rocket 2.7 20:53:38 10° S 20:57:51 42° W 21:02:05 10° NNW
CRYOSAT 2 4.4 20:56:19 13° S 21:00:42 83° W 21:05:39 10° N
Cosmos 2228 Rocket 4.5 21:01:58 20° ESE 21:03:11 22° E 21:06:36 10° NE
Cosmos 1844 Rocket 3.8 20:58:19 10° SW 21:03:39 46° NW 21:09:03 10° NNE
SPOT 3 Rocket 4.4 20:59:07 10° S 21:04:04 46° W 21:09:02 10° NNW
NOSS 3-3 (A) 3.8 21:01:39 10° SSW 21:07:21 68° SE 21:13:54 10° NE
NOSS 3-3 (C) 3.8 21:01:46 10° SSW 21:07:28 68° SE 21:14:00 10° NE
USA 307 3.3 21:05:33 10° WNW 21:09:47 60° NNE 21:12:48 18° E
ATLAS 2AS CENTAUR R/B 3.7 21:03:33 10° NW 21:10:42 43° NNE 21:16:52 12° E
CREW DRAGON DEMO-1 DEB 2.8 21:11:49 10° WNW 21:14:27 59° NNE 21:15:13 38° ENE
Cosmos 1151 Rocket 3.5 21:10:18 10° SSW 21:14:37 63° WNW 21:18:59 10° N
BREEZE-M R/B 1.6 21:14:55 10° WSW 21:17:22 89° NNW 21:18:26 31° ENE
Cosmos 1536 4.2 21:14:44 10° NNE 21:18:10 26° ENE 21:19:22 22° E
CZ-4C R/B 3.0 21:11:00 10° NW 21:18:11 87° SW 21:23:48 23° SE
Cosmos 1812 2.6 21:16:50 27° S 21:18:46 70° E 21:22:38 10° NNE
USA 215 4.3 21:13:41 10° ENE 21:19:48 44° N 21:25:56 10° WNW
Meteor 1-10 Rocket 4.5 21:17:12 24° SSE 21:20:19 49° E 21:25:45 10° NNE
Iridium 4 Rocket 3.9 21:18:17 23° SSE 21:21:54 64° E 21:27:46 10° N
USA 308 3.1 21:19:04 10° WNW 21:23:21 68° NNE 21:25:49 24° ESE
JB-3 4.2 21:19:47 10° NNE 21:23:43 87° E 21:25:57 24° SSW
ATLAS 5 CENTAUR R/B 3.2 21:19:14 10° NW 21:24:31 40° WSW 21:28:41 19° S
Cosmos 1538 Rocket 4.0 21:20:37 10° NNW 21:26:01 83° ENE 21:28:51 29° SSE
Meteor 1-5 Rocket 4.1 21:22:11 10° NNW 21:27:39 86° W 21:30:46 26° S
Cosmos 2084 3.3 21:25:08 10° SW 21:29:17 84° SE 21:33:34 10° NE
Cosmos 158 Rocket 4.1 21:25:38 10° NNW 21:30:27 57° ENE 21:32:38 31° SE
Cosmos 1666 2.5 21:30:00 10° N 21:33:45 89° E 21:34:57 42° S
Cosmos 1833 Rocket 2.7 21:30:51 10° NNW 21:36:32 74° WSW 21:39:27 29° SSE
Cosmos 1515 Rocket 3.6 21:34:00 23° SSW 21:36:44 81° W 21:41:10 10° N
Cosmos 1869 Rocket 3.9 21:35:47 10° N 21:40:01 50° ENE 21:41:16 37° SE
Spot 2 Rocket 4.2 21:36:57 19° SSW 21:40:19 46° W 21:45:12 10° NNW
Cosmos 1743 4.1 21:38:55 10° NNE 21:42:07 24° ENE 21:42:43 23° E
Cosmos 1680 Rocket 4.2 21:38:18 10° NNW 21:43:24 44° ENE 21:45:47 27° ESE
SPOT 5 3.2 21:41:10 27° S 21:43:55 66° WSW 21:49:11 10° NNW
ARIANE 5 R/B 3.7 21:43:44 20° SSW 21:46:12 38° W 21:50:16 10° NNW
Terra 1.8 21:45:33 34° S 21:47:38 81° WSW 21:52:25 10° NNW
ERS-1 Rocket 3.5 21:50:41 26° SSW 21:53:19 53° W 21:58:16 10° NNW
deb Kosmos-1763 4.3 21:51:20 10° NNW 21:54:49 54° WSW 21:55:21 47° SW
Cosmos 2154 Rocket 4.0 21:50:48 10° N 21:57:10 80° E 22:00:11 33° SSE
X-37B 3.1 21:55:52 10° WSW 21:56:32 13° WSW 21:56:32 13° WSW
Cosmos 1707 Rocket 4.3 21:59:37 34° ESE 22:00:00 34° E 22:03:58 10° NNE
ALOS 2 4.4 21:59:30 17° E 22:00:55 20° ENE 22:04:05 10° NNE
USA 305 2.8 22:00:35 10° WNW 22:04:50 72° SSW 22:05:35 57° SSE
Cosmos 2184 Rocket 4.2 21:58:46 10° NNW 22:04:57 65° W 22:08:18 28° SSW
Cosmos 2074 Rocket 4.4 22:05:32 10° NNW 22:11:41 57° W 22:15:13 26° SSW
Cosmos 2082 Rocket 2.2 22:06:29 10° NNW 22:12:07 75° WSW 22:14:07 41° S
COSMOS 2406 4.0 22:07:04 10° NW 22:12:20 40° WSW 22:14:42 27° SSW
Meteor 2-12 Rocket 4.5 22:06:58 10° NNW 22:13:02 73° W 22:15:49 34° S
Meteor 1-27 Rocket 3.7 22:12:02 35° S 22:14:40 84° E 22:20:37 10° NNE
Cosmos 44 3.9 22:10:42 10° NNW 22:16:06 56° NE 22:18:21 33° ESE
Cosmos 923 Rocket 4.0 22:13:45 10° NNW 22:19:02 80° WSW 22:20:38 46° S
Nadezhda 1 Rocket 4.0 22:16:05 30° SSW 22:19:25 84° W 22:25:43 10° N
Cosmos 1898 Rocket 3.8 22:20:54 45° SE 22:21:49 50° ESE 22:26:58 10° NNE
Cosmos 1271 Rocket 3.8 22:21:48 29° SW 22:23:21 43° WNW 22:27:12 10° N
USA 306 3.0 22:19:48 10° WNW 22:23:59 56° SW 22:24:02 55° SSW
Gbstr 26 Del rocket 4.2 22:21:32 10° WNW 22:29:04 75° NNE 22:34:28 14° E
Cosmos 1544 3.0 22:25:35 10° NNW 22:29:08 75° W 22:29:08 75° W
SJ 16-02 2.3 22:29:06 21° SW 22:31:40 45° WNW 22:35:57 10° N
Cosmos 1733 Rocket 3.1 22:27:34 10° N 22:31:52 58° ENE 22:32:19 55° ESE
Cosmos 2181 Rocket 4.2 22:34:44 40° SE 22:36:30 53° E 22:42:26 10° NNE
Cosmos 2278 Rocket 3.1 22:32:32 10° SW 22:37:59 46° NW 22:43:27 10° NNE
Cosmos 1515 4.0 22:38:29 55° ENE 22:38:29 55° ENE 22:41:51 10° NNE
Cosmos 1238 Rocket 3.9 22:31:48 10° N 22:38:11 71° E 22:39:54 46° SSE
Okean 1 3.6 22:40:56 53° E 22:40:56 53° E 22:44:37 10° NNE
Cosmos 2228 Rocket 4.1 22:39:25 29° WSW 22:41:07 41° WNW 22:45:22 10° N
Cosmos 990 Rocket 3.9 22:40:06 48° SSW 22:41:36 87° ESE 22:46:54 10° NNE
Cosmos 1340 Rocket 3.0 22:39:09 10° NNW 22:43:12 62° W 22:43:27 60° WSW
Cosmos 2366 rocket 4.1 22:41:29 10° N 22:47:38 66° ENE 22:49:36 43° SE
Cosmos 2369 Rocket 3.3 22:48:04 28° ESE 22:48:09 28° ESE 22:52:52 10° NE
NOSS 3-4 (A) 4.2 22:41:36 10° NW 22:48:21 51° WSW 22:50:58 37° S
NOSS 3-4 (C) 4.2 22:41:42 10° NW 22:48:28 51° WSW 22:51:05 37° S
Cosmos 2341 Rocket 4.0 22:43:06 10° N 22:49:31 82° W 22:51:45 44° S
USA 307 3.8 22:45:41 10° WNW 22:48:54 36° WSW 22:48:54 36° WSW
Cosmos 967 Rocket 4.5 22:49:56 46° S 22:51:29 60° ESE 22:57:40 10° NE
Cosmos 1943 Rocket 2.3 22:52:38 50° SE 22:53:27 55° ESE 22:58:55 10° NE
Cosmos 1536 4.1 22:51:02 10° NNW 22:54:34 30° W 22:55:05 29° WSW
Meteor 2-9 Rocket 4.2 22:49:14 10° N 22:55:04 77° ENE 22:56:34 51° SSE
SeaSat 1 4.1 22:52:08 10° ENE 22:55:08 20° E 22:55:08 20° E
Cosmos 1461 4.4 22:58:11 28° E 22:58:11 28° E 23:01:10 10° NE
Cosmos 2112 Rocket 4.2 22:52:30 10° NNW 22:57:46 59° WSW 22:58:49 49° SSW
ATLAS 2AS CENTAUR R/B 2.8 22:54:48 10° NW 23:02:06 66° WSW 23:04:17 44° S
USA 215 3.4 22:57:12 17° ESE 23:02:21 72° NNE 23:08:52 10° NW
USA 308 4.3 22:59:18 10° WNW 23:01:54 27° WSW 23:01:54 27° WSW
CZ-4C R/B 4.3 23:00:22 10° WNW 23:06:17 26° WSW 23:08:59 21° SW
RESURS DK-1 4.1 23:02:46 10° N 23:06:21 27° NE 23:07:43 22° E
Cosmos 2218 Rocket 3.9 23:00:51 10° N 23:07:09 89° WSW 23:09:04 48° S
Cosmos 1975 2.8 23:04:29 10° N 23:08:17 72° NE 23:08:17 72° NE
SL-24 R/B - RUBIN 2 3.9 23:03:23 10° NW 23:08:50 64° WSW 23:09:19 60° SSW
Cosmos 489 Rocket 4.4 23:04:01 10° NNW 23:10:17 88° ENE 23:12:08 49° SSE
Meteor 2-4 Rocket 4.1 23:09:23 45° SE 23:10:28 52° E 23:15:56 10° NNE
Cosmos 1862 Rocket 3.4 23:13:56 75° WSW 23:14:09 78° W 23:18:30 10° N
Cosmos 1703 Rocket 4.3 23:14:30 39° E 23:14:30 39° E 23:18:28 10° NNE
Cosmos 1743 4.1 23:14:31 10° NNW 23:17:47 29° W 23:17:47 29° W
Cosmos 1900 4.3 23:18:46 60° SW 23:19:44 89° NW 23:24:49 10° NE
Cosmos 2084 Rocket 3.4 23:16:42 10° NW 23:20:45 74° W 23:20:45 74° W
ERBS 3.5 23:18:29 10° NW 23:20:56 41° NNW 23:20:56 41° NNW
Terra 4.3 23:25:04 10° W 23:26:09 11° W 23:27:14 10° WNW
Cosmos 1937 Rocket 3.6 23:26:02 48° SW 23:27:21 67° WNW 23:32:32 10° NNE
Meteor 1-18 Rocket 4.2 23:27:33 52° SSW 23:28:57 78° WNW 23:34:36 10° N
Nadezhda 3 Rocket 4.4 23:28:06 40° SE 23:29:43 50° E 23:35:41 10° NNE
ATLAS CENTAUR R/B 3.7 23:34:53 11° E 23:34:53 11° E 23:35:15 10° ENE
Cosmos 2297 4.1 23:32:11 35° WSW 23:34:31 61° WNW 23:40:10 10° NNE
SL-8 Rocket 4.5 23:28:27 10° NNW 23:34:32 50° W 23:36:25 38° SW
Thor Agena Rocket 3.7 23:30:47 10° NNE 23:35:58 60° ESE 23:36:39 55° SE
Cosmos 1818 3.6 23:30:58 10° NW 23:36:23 60° WSW 23:36:52 57° SSW
ALOS 2 2.9 23:36:53 54° W 23:36:53 54° W 23:41:13 10° NNW
Cosmos 1607 4.4 23:36:38 41° SE 23:37:27 43° ESE 23:43:32 10° NE
Cosmos 1048 Rocket 4.2 23:32:35 10° NNW 23:37:54 65° ENE 23:39:11 49° ESE
DNEPR-1 R/B 4.0 23:39:47 46° SW 23:41:30 80° NW 23:46:25 10° NE
Cosmos 2298 Rocket 4.4 23:41:55 46° ESE 23:42:20 47° ESE 23:47:26 10° NNE
Okean 1-7 3.0 23:42:48 72° ENE 23:42:48 72° ENE 23:46:56 10° NNE
PSLV R/B 4.4 23:41:04 10° NNE 23:45:08 39° E 23:45:08 39° E
SL-08 R/B 4.4 23:39:37 10° N 23:45:49 81° W 23:47:31 51° S
Resurs 1-4 Rocket 4.5 23:50:06 10° ENE 23:51:22 11° E 23:52:38 10° E
Cosmos 2082 Rocket 4.3 23:53:07 10° WNW 23:55:11 12° W 23:55:58 12° WSW
Lacrosse 5 4.2 23:58:45 11° ESE 23:58:45 11° ESE 23:59:12 10° E
